weather.gov     
National Weather Service

Terminal Aerodrome Forecast
NWS Homepage
This page is being discontinued on March 12, 2014.
The same data is available at this site. Please update your bookmarks.
Thank you, and we apologize for the inconvenience.
Please send an email to SR-SRH.Webmaster@noaa.gov with any concerns.


Current Version
Previous Version:    01  02  03  04  05  06  07  08  09  10  11  12  13  14  15  16  17  18  19  20  21  22  23  24  25  26  27  28  29  30  
   31  32  33  34  35  36  37  
[Printable]
723
FTUS46 KLOX 251400 AAB
TAFOXR
TAF AMD
KOXR 251426Z 2514/2612 VRB05KT P6SM SCT002
      TEMPO 2514/2516 5SM BR BKN002
     FM251700 26008KT P6SM FEW015 BKN120
     FM252100 27014KT P6SM BKN150
     FM260300 30008KT P6SM SCT150
     FM260700 VRB03KT P6SM SCT150=


U.S. Dept. of Commerce
NOAA National Weather Service
1325 East West Highway
Silver Spring, MD 20910
E-mail: w-nws.webmaster@noaa.gov
Page last modified: May 16, 2007
NATIONAL WEATHER SERVICE: for Safety, for Work, for Fun - FOR LIFE